Regional Weather Roundup
Issued by NWS

Home | Current Version | Previous Version | Text Only | Print | Product List | Glossary Off
Versions: 1 2 3 4 5 6 7 8 9 10 11 12 13 14 15 16 17 18 19 20 21 22 23 24 25 26 27 28 29 30 31 32 33 34 35 36 37 38 39 40 41 42 43 44 45 46 47 48 49 50

000
ASUS44 KMEG 211100
RWRTN
TENNESSEE HOURLY STATE WEATHER ROUNDUP
NATIONAL WEATHER SERVICE MEMPHIS TN
600 AM CDT SUN SEP 21 2014

TNZ002-004-019-021-049-052-054-088>092-211200-
WEST TENNESSEE

CITY           SKY/WX    TMP DP  RH WIND       PRES   REMARKS
MEMPHIS INTL   CLEAR     71  66  84 SW5       30.00R
NWS MEMPHIS      N/A     68 N/A N/A MISG        N/A
JACKSON        CLEAR     68  65  90 SW6       29.99R
DYERSBURG      CLEAR     70  59  68 SW6       29.99S
UNION CITY     CLEAR     68  66  94 SW5       29.96S
PARIS          CLEAR     66  64  94 SW6       29.97S
SAVANNAH       CLEAR     64  64 100 CALM      30.01R
$$

TNZ008-025-027-028-033-062-065-066-211200-
NORTH MIDDLE TENNESSEE

CITY           SKY/WX    TMP DP  RH WIND       PRES   REMARKS
NASHVILLE      PTCLDY    66  63  90 S3        29.97S
CLARKSVILLE    CLEAR     70  66  87 SW6       29.94F
COOKEVILLE     CLEAR     61  61 100 S3        30.00S
CROSSVILLE     CLEAR     63  58  83 VRB3      30.04S
$$

TNZ061-075-076-078-094-096-097-211200-
SOUTH MIDDLE TENNESSEE

CITY           SKY/WX    TMP DP  RH WIND       PRES   REMARKS
SHELBYVILLE    CLEAR     64  63  94 CALM      30.02R
$$

TNZ017-018-042-046-047-211200-
NORTHEAST TENNESSEE

CITY           SKY/WX    TMP DP  RH WIND       PRES   REMARKS
TRI CITIES     MOCLDY    56  54  93 NE3       30.02R
ELIZABETHTON   CLOUDY    55  54  94 CALM      30.03R
$$

TNZ012-013-036-069-073-074-211200-
CENTRAL EAST TENNESSEE

CITY           SKY/WX    TMP DP  RH WIND       PRES   REMARKS
KNOXVILLE      PTCLDY    63  61  93 W6        30.00R
OAK RIDGE      PTCLDY    63  62  97 CALM      30.02R
GATLINBURG     SUNNY     57  55  94 CALM      30.00R
$$

TNZ083-085-099-211200-
SOUTHEAST TENNESSEE

CITY           SKY/WX    TMP DP  RH WIND       PRES   REMARKS
CHATTANOOGA    CLEAR     63  59  87 CALM      30.02R
$$

SKY/WX REPORTED AS FAIR MEANS FEW OR NO CLOUDS BELOW
12 THOUSAND FEET.




USA.gov is the U.S. government's official web portal to all federal, state and local government web resources and services.